Home > Time Zones > World Clock > Weather > France > Pau > Past weeks

Flag for France Weather past 2 weeks in Pau, France

Now
64 °F

Broken clouds.


Feels Like: 64 °F
Forecast: 48 / 62 °F
Wind: 8 mph from Northeast

Location: Pau Airport


UV Index: 0 (Low)

Visibility: N/A


Pressure: 29.62 "Hg

Humidity: 64%

Dew point: 52 °F

Location of PauLocation

Historic Weather in Pau

°F

Pau temperature yesterday

Maximum temperature yesterday: 55 °F (at 12:00 AM)
Minimum temperature yesterday: 48 °F (at 7:00 AM)
Average temperature yesterday: 52 °F

Past Weeks' High & Low Weather Summary

 TemperatureHumidityPressure
High81 °F (Apr 7, 12:30 PM)100% (Apr 8, 8:00 AM)30.33 "Hg (Apr 8, 8:00 AM)
Low41 °F (Apr 21, 6:00 AM)22% (Apr 16, 6:30 PM)29.62 "Hg (Apr 20, 4:00 AM)
Average58 °F71%30.02 "Hg
* Reported Apr 6 3:00 PM — Apr 21 3:30 PM, Pau, Weather by CustomWeather, © 2014

Note: Actual official high and low records may vary slightly from our data, if they occured in-between our weather recording intervals... More about our weather records

Advertising

Historic Weather Conditions — Data for Previous 24 hours

 ConditionsComfort  
Time TempWeatherWind HumidityBarometerVisibility
3:30 PM
Apr 21
64 °FBroken clouds.6 mph60%29.62 "HgN/A
3:00 PM64 °FPartly sunny.8 mph60%29.62 "HgN/A
2:30 PM64 °FPartly sunny.8 mph60%29.62 "HgN/A
2:00 PM64 °FPartly sunny.6 mph60%29.62 "HgN/A
1:30 PM63 °FPartly sunny.8 mph68%29.62 "HgN/A
1:00 PM63 °FScattered clouds.7 mph64%29.62 "HgN/A
12:30 PM63 °FScattered clouds.8 mph64%29.62 "HgN/A
12:00 PM63 °FScattered clouds.6 mph64%29.62 "HgN/A
11:30 AM59 °FScattered clouds.3 mph72%29.62 "HgN/A
11:00 AM57 °FPassing clouds.3 mph77%29.62 "HgN/A
10:30 AM57 °FPassing clouds.No wind72%29.62 "HgN/A
10:00 AM55 °FPassing clouds.2 mph77%29.62 "HgN/A
9:30 AM52 °FSunny.5 mph77%29.62 "Hg10 mi
9:00 AM48 °FPassing clouds.3 mph94%29.62 "HgN/A
8:30 AM46 °FSunny.3 mph93%29.62 "Hg10 mi
8:00 AM43 °FClear.3 mph100%29.62 "Hg10 mi
7:30 AM41 °FClear.3 mph93%29.62 "Hg10 mi
7:00 AM43 °FClear.3 mph93%29.62 "Hg10 mi
6:30 AM41 °FClear.3 mph100%29.62 "Hg5 mi
6:00 AM41 °FClear.3 mph100%29.62 "HgN/A
5:30 AM43 °FClear.5 mph93%29.62 "Hg6 mi
4:30 AM43 °FClear.3 mph93%29.62 "HgN/A
4:00 AM43 °FClear.3 mph93%29.62 "Hg6 mi
3:30 AM43 °FClear.2 mph93%29.65 "Hg5 mi
3:00 AM43 °FClear.No wind93%29.65 "Hg6 mi
2:30 AM43 °FLight fog.1 mph93%29.65 "Hg5 mi
2:00 AM45 °FClear.3 mph93%29.65 "HgN/A
1:30 AM45 °FClear.1 mph93%29.65 "HgN/A
1:00 AM46 °FClear.3 mph93%29.65 "HgN/A
12:30 AM48 °FClear.3 mph87%29.65 "HgN/A
12:00 AM48 °FPassing clouds.3 mph94%29.65 "HgN/A
11:00 PM
Apr 20
50 °FOvercast.3 mph94%29.68 "HgN/A
10:30 PM52 °FOvercast.3 mph82%29.68 "HgN/A
10:00 PM52 °FOvercast.3 mph82%29.68 "HgN/A
9:30 PM52 °FOvercast.3 mph88%29.68 "HgN/A
9:00 PM52 °FMostly cloudy.2 mph82%29.68 "HgN/A
8:30 PM52 °FOvercast.3 mph82%29.65 "HgN/A
8:00 PM52 °FOvercast.3 mph82%29.65 "HgN/A
7:30 PM52 °FLight rain. Overcast.5 mph88%29.65 "HgN/A
7:00 PM54 °FLight rain. Broken clouds.3 mph82%29.65 "HgN/A
6:30 PM54 °FBroken clouds.No wind72%29.65 "HgN/A
6:00 PM54 °FBroken clouds.2 mph72%29.65 "HgN/A
5:30 PM54 °FPartly sunny.3 mph77%29.65 "HgN/A
5:00 PM54 °FBroken clouds.2 mph77%29.65 "HgN/A
4:30 PM54 °FPartly sunny.2 mph77%29.65 "HgN/A
4:00 PM52 °FBroken clouds.6 mph88%29.65 "HgN/A
Weather by CustomWeather, © 2014

See weather overview